PROGRESS-MS 12 (44455 NORAD) Tracking and Keplerian Element Data

This shows tracking and keplerian element data for the satellite.

Feedback or suggestion? Click here.




ElementValue
Catalog44455
NamePROGRESS-MS 12
Epoch Orbit248
Epoch Day228.5490738
Epoch Year2019
RAAN61.791
Inclination51.644
Eccentricity0.0007449
Argument of Perigee294.5546
Mean Anonmoly117.0519
Mean Motion15.50387239
Decay Rate5.702E-05
L11 44455U 19047A 19228.54907380 .00005702 00000-0 10635-3 0 9993
L22 44455 51.6440 61.7910 0007449 294.5546 117.0519 15.50387239 2488

Live tracking and technical data element details for PROGRESS-MS 12 (NORAD 44455). PROGRESS-MS 12 can be tracked NOW for your location showing map with azimuth and elevation plus other details from your city location.

Track the satellite on the map from your city or location and see movement details for azimuth, elevation, latitude, longitude, range, height, and movement on the map or in text.







IsCatalogInMostPopularTable: catalog: 44455, numindb: 2
Update: records affected: 1



GetName: 44455 PROGRESS-MS 12

Hit Count: updated at: Wed, 21 Aug 2019 12:21:34 GMT